Time,TemperatureF,DewpointF,PressureIn,WindDirection,WindDirectionDegrees,WindSpeedMPH,WindSpeedGustMPH,Humidity,HourlyPrecipIn,Conditions,Clouds,dailyrainin,SoftwareType,DateUTC
2013-03-20 00:04:00,28.0,16.6,30.31,NW,321,5.0,6.0,62,0.00,,,0.00,Wunderground v.1.15,2013-03-20 05:04:00,
2013-03-20 00:10:00,27.8,16.1,30.31,NW,320,4.0,4.0,61,0.00,,,0.00,Wunderground v.1.15,2013-03-20 05:10:00,
2013-03-20 00:16:00,27.6,15.9,30.31,North,6,3.0,10.0,61,0.00,,,0.00,Wunderground v.1.15,2013-03-20 05:16:00,
2013-03-20 00:22:00,27.3,16.0,30.32,NNW,339,9.0,11.0,62,0.00,,,0.00,weatherlink.com 1.10,2013-03-20 05:22:00,
2013-03-20 00:27:00,27.1,16.5,30.32,NNW,340,4.0,9.0,64,0.00,,,0.00,Wunderground v.1.15,2013-03-20 05:27:00,
2013-03-20 00:32:00,26.9,16.7,30.32,NNE,16,4.0,6.0,65,0.00,,,0.00,Wunderground v.1.15,2013-03-20 05:32:00,
2013-03-20 00:37:00,26.7,16.1,30.32,NNE,24,4.0,7.0,64,0.00,,,0.00,Wunderground v.1.15,2013-03-20 05:37:00,
2013-03-20 00:43:00,25.9,15.0,30.33,NNW,335,7.0,12.0,63,0.00,,,0.00,Wunderground v.1.15,2013-03-20 05:43:00,
2013-03-20 00:49:00,25.4,14.5,30.33,North,8,8.0,12.0,63,0.00,,,0.00,Wunderground v.1.15,2013-03-20 05:49:00,
2013-03-20 00:55:00,25.0,13.4,30.33,NNW,335,8.0,17.0,61,0.00,,,0.00,Wunderground v.1.15,2013-03-20 05:55:00,
2013-03-20 01:00:00,24.8,14.0,30.33,NNE,25,7.0,7.0,63,0.00,,,0.00,Wunderground v.1.15,2013-03-20 06:00:00,
2013-03-20 01:06:00,24.2,13.8,30.33,North,355,5.0,9.0,64,0.00,,,0.00,Wunderground v.1.15,2013-03-20 06:06:00,
2013-03-20 01:12:00,23.8,13.7,30.33,North,359,5.0,6.0,65,0.00,,,0.00,Wunderground v.1.15,2013-03-20 06:12:00,
2013-03-20 01:17:00,23.7,14.0,30.33,NW,304,3.0,6.0,66,0.00,,,0.00,Wunderground v.1.15,2013-03-20 06:17:00,
2013-03-20 01:23:00,23.5,13.8,30.33,NNW,338,4.0,6.0,66,0.00,,,0.00,Wunderground v.1.15,2013-03-20 06:23:00,
2013-03-20 01:28:00,23.3,12.6,30.33,NNE,23,5.0,7.0,63,0.00,,,0.00,Wunderground v.1.15,2013-03-20 06:28:00,
2013-03-20 01:33:00,23.1,12.7,30.34,NNE,20,5.0,6.0,64,0.00,,,0.00,Wunderground v.1.15,2013-03-20 06:33:00,
2013-03-20 01:39:00,22.9,12.2,30.34,NW,318,5.0,6.0,63,0.00,,,0.00,Wunderground v.1.15,2013-03-20 06:39:00,
2013-03-20 01:45:00,22.7,12.0,30.34,North,7,6.0,7.0,63,0.00,,,0.00,Wunderground v.1.15,2013-03-20 06:45:00,
2013-03-20 01:50:00,22.5,12.1,30.34,NNW,347,4.0,4.0,64,0.00,,,0.00,Wunderground v.1.15,2013-03-20 06:50:00,
2013-03-20 01:56:00,22.3,12.0,30.34,North,4,4.0,6.0,64,0.00,,,0.00,Wunderground v.1.15,2013-03-20 06:56:00,
2013-03-20 02:02:00,22.2,12.2,30.34,NNW,332,5.0,6.0,65,0.00,,,0.00,Wunderground v.1.15,2013-03-20 07:02:00,
2013-03-20 02:08:00,22.1,12.1,30.34,North,356,4.0,6.0,65,0.00,,,0.00,Wunderground v.1.15,2013-03-20 07:08:00,
2013-03-20 02:14:00,22.1,12.1,30.34,NNW,348,4.0,6.0,65,0.00,,,0.00,Wunderground v.1.15,2013-03-20 07:14:00,
2013-03-20 02:20:00,22.0,12.0,30.34,North,349,5.0,6.0,65,0.00,,,0.00,Wunderground v.1.15,2013-03-20 07:20:00,
2013-03-20 02:25:00,21.9,12.0,30.34,NNE,14,15.0,15.0,65,0.00,,,0.00,weatherlink.com 1.10,2013-03-20 07:25:00,
2013-03-20 02:30:00,21.9,11.9,30.34,North,353,6.0,6.0,65,0.00,,,0.00,Wunderground v.1.15,2013-03-20 07:30:00,
2013-03-20 02:35:00,21.8,12.2,30.35,North,349,4.0,6.0,66,0.00,,,0.00,Wunderground v.1.15,2013-03-20 07:35:00,
2013-03-20 02:40:00,21.7,12.4,30.35,NNW,343,2.0,6.0,67,0.00,,,0.00,Wunderground v.1.15,2013-03-20 07:40:00,
2013-03-20 02:46:00,21.5,12.6,30.35,WNW,293,1.0,6.0,68,0.00,,,0.00,Wunderground v.1.15,2013-03-20 07:46:00,
2013-03-20 02:52:00,21.5,12.9,30.35,NW,323,2.0,9.0,69,0.00,,,0.00,Wunderground v.1.15,2013-03-20 07:52:00,
2013-03-20 02:58:00,21.4,12.8,30.34,NNW,341,3.0,9.0,69,0.00,,,0.00,Wunderground v.1.15,2013-03-20 07:58:00,
2013-03-20 03:04:00,21.3,13.0,30.35,NW,313,2.0,6.0,70,0.00,,,0.00,Wunderground v.1.15,2013-03-20 08:04:00,
2013-03-20 03:10:00,21.2,13.0,30.35,North,351,4.0,9.0,70,0.00,,,0.00,weatherlink.com 1.10,2013-03-20 08:10:00,
2013-03-20 03:16:00,21.2,13.3,30.35,North,2,3.0,6.0,71,0.00,,,0.00,Wunderground v.1.15,2013-03-20 08:16:00,
2013-03-20 03:23:00,21.1,13.0,30.35,North,11,5.0,7.0,71,0.00,,,0.00,weatherlink.com 1.10,2013-03-20 08:23:00,
2013-03-20 03:28:00,21.0,13.1,30.35,North,4,3.0,6.0,71,0.00,,,0.00,Wunderground v.1.15,2013-03-20 08:28:00,
2013-03-20 03:34:00,20.9,13.0,30.35,NNW,341,2.0,7.0,71,0.00,,,0.00,Wunderground v.1.15,2013-03-20 08:34:00,
2013-03-20 03:40:00,20.9,13.0,30.35,NNW,343,3.0,3.0,71,0.00,,,0.00,Wunderground v.1.15,2013-03-20 08:40:00,
2013-03-20 03:46:00,20.8,12.9,30.35,NNW,344,3.0,6.0,71,0.00,,,0.00,Wunderground v.1.15,2013-03-20 08:46:00,
2013-03-20 03:52:00,20.7,12.8,30.35,North,357,3.0,6.0,71,0.00,,,0.00,Wunderground v.1.15,2013-03-20 08:52:00,
2013-03-20 03:58:00,20.6,12.7,30.35,North,359,1.0,6.0,71,0.00,,,0.00,Wunderground v.1.15,2013-03-20 08:58:00,
2013-03-20 04:04:00,20.4,12.2,30.35,NNW,333,1.0,6.0,70,0.00,,,0.00,Wunderground v.1.15,2013-03-20 09:04:00,
2013-03-20 04:12:00,20.4,11.5,30.35,North,351,4.0,6.0,68,0.00,,,0.00,Wunderground v.1.15,2013-03-20 09:12:00,
2013-03-20 04:18:00,20.4,10.8,30.35,NW,312,5.0,12.0,66,0.00,,,0.00,Wunderground v.1.15,2013-03-20 09:18:00,
2013-03-20 04:23:00,20.4,10.8,30.35,NNW,333,4.0,6.0,66,0.00,,,0.00,Wunderground v.1.15,2013-03-20 09:23:00,
2013-03-20 04:28:00,20.3,11.1,30.35,NNW,339,4.0,6.0,67,0.00,,,0.00,Wunderground v.1.15,2013-03-20 09:28:00,
2013-03-20 04:33:00,20.2,11.0,30.35,North,357,4.0,6.0,67,0.00,,,0.00,Wunderground v.1.15,2013-03-20 09:33:00,
2013-03-20 04:38:00,20.1,10.9,30.35,North,2,4.0,6.0,67,0.00,,,0.00,Wunderground v.1.15,2013-03-20 09:38:00,
2013-03-20 04:45:00,20.0,11.0,30.35,NNE,14,7.0,11.0,67,0.00,,,0.00,weatherlink.com 1.10,2013-03-20 09:45:00,
2013-03-20 04:51:00,19.9,10.7,30.35,North,353,5.0,6.0,67,0.00,,,0.00,Wunderground v.1.15,2013-03-20 09:51:00,
2013-03-20 04:58:00,19.8,10.9,30.35,NNW,331,3.0,6.0,68,0.00,,,0.00,Wunderground v.1.15,2013-03-20 09:58:00,
2013-03-20 05:04:00,19.7,10.8,30.36,North,353,4.0,9.0,68,0.00,,,0.00,Wunderground v.1.15,2013-03-20 10:04:00,
2013-03-20 05:10:00,19.6,11.0,30.36,NNW,333,6.0,9.0,69,0.00,,,0.00,weatherlink.com 1.10,2013-03-20 10:10:00,
2013-03-20 05:15:00,19.5,11.0,30.36,NNW,337,3.0,6.0,69,0.00,,,0.00,Wunderground v.1.15,2013-03-20 10:15:00,
2013-03-20 05:20:00,19.5,11.0,30.35,WNW,299,4.0,4.0,69,0.00,,,0.00,Wunderground v.1.15,2013-03-20 10:20:00,
2013-03-20 05:26:00,19.5,10.6,30.36,NW,320,5.0,6.0,68,0.00,,,0.00,Wunderground v.1.15,2013-03-20 10:26:00,
2013-03-20 05:32:00,19.5,10.0,30.35,NNW,343,7.0,12.0,66,0.00,,,0.00,Wunderground v.1.15,2013-03-20 10:32:00,
2013-03-20 05:38:00,19.5,10.0,30.35,WNW,303,10.0,17.0,66,0.00,,,0.00,weatherlink.com 1.10,2013-03-20 10:38:00,
2013-03-20 05:43:00,19.4,9.9,30.35,NE,43,7.0,10.0,66,0.00,,,0.00,Wunderground v.1.15,2013-03-20 10:43:00,
2013-03-20 05:48:00,19.4,10.2,30.36,NNW,333,5.0,10.0,67,0.00,,,0.00,Wunderground v.1.15,2013-03-20 10:48:00,
2013-03-20 05:54:00,19.3,10.1,30.36,NE,34,4.0,7.0,67,0.00,,,0.00,Wunderground v.1.15,2013-03-20 10:54:00,
2013-03-20 06:00:00,19.1,10.3,30.36,NNW,340,4.0,4.0,68,0.00,,,0.00,Wunderground v.1.15,2013-03-20 11:00:00,
2013-03-20 06:05:00,19.0,10.5,30.36,NW,316,3.0,7.0,69,0.00,,,0.00,Wunderground v.1.15,2013-03-20 11:05:00,
2013-03-20 06:13:00,18.9,10.7,30.36,North,353,2.0,6.0,70,0.00,,,0.00,Wunderground v.1.15,2013-03-20 11:13:00,
2013-03-20 06:18:00,18.8,10.9,30.36,West,281,2.0,6.0,71,0.00,,,0.00,Wunderground v.1.15,2013-03-20 11:18:00,
2013-03-20 06:24:00,18.8,11.3,30.37,North,355,3.0,9.0,72,0.00,,,0.00,Wunderground v.1.15,2013-03-20 11:24:00,
2013-03-20 06:30:00,18.7,11.2,30.37,North,353,4.0,4.0,72,0.00,,,0.00,Wunderground v.1.15,2013-03-20 11:30:00,
2013-03-20 06:36:00,18.7,11.2,30.37,North,8,3.0,7.0,72,0.00,,,0.00,Wunderground v.1.15,2013-03-20 11:36:00,
2013-03-20 06:42:00,18.6,11.1,30.37,WNW,292,3.0,8.0,72,0.00,,,0.00,Wunderground v.1.15,2013-03-20 11:42:00,
2013-03-20 06:50:00,18.5,10.7,30.37,NNW,328,4.0,7.0,71,0.00,,,0.00,Wunderground v.1.15,2013-03-20 11:50:00,
2013-03-20 06:55:00,18.4,10.6,30.37,NNW,334,5.0,13.0,71,0.00,,,0.00,Wunderground v.1.15,2013-03-20 11:55:00,
2013-03-20 07:02:00,18.2,10.1,30.37,North,353,6.0,6.0,70,0.00,,,0.00,Wunderground v.1.15,2013-03-20 12:02:00,
2013-03-20 07:08:00,18.0,9.5,30.36,NNW,333,5.0,6.0,69,0.00,,,0.00,Wunderground v.1.15,2013-03-20 12:08:00,
2013-03-20 07:14:00,17.9,9.4,30.36,North,358,6.0,8.0,69,0.00,,,0.00,Wunderground v.1.15,2013-03-20 12:14:00,
2013-03-20 07:19:00,17.7,9.2,30.37,NNE,18,6.0,8.0,69,0.00,,,0.00,Wunderground v.1.15,2013-03-20 12:19:00,
2013-03-20 07:25:00,17.6,9.0,30.37,North,4,5.0,12.0,70,0.00,,,0.00,weatherlink.com 1.10,2013-03-20 12:25:00,
2013-03-20 07:30:00,17.5,9.4,30.37,NNE,12,5.0,12.0,70,0.00,,,0.00,Wunderground v.1.15,2013-03-20 12:30:00,
2013-03-20 07:35:00,17.5,9.7,30.37,NNE,20,6.0,12.0,71,0.00,,,0.00,Wunderground v.1.15,2013-03-20 12:35:00,
2013-03-20 07:40:00,17.3,9.8,30.37,North,360,5.0,5.0,72,0.00,,,0.00,Wunderground v.1.15,2013-03-20 12:40:00,
2013-03-20 07:46:00,17.3,9.8,30.37,NNW,336,4.0,9.0,72,0.00,,,0.00,Wunderground v.1.15,2013-03-20 12:46:00,
2013-03-20 07:52:00,17.3,9.8,30.38,North,10,4.0,7.0,72,0.00,,,0.00,Wunderground v.1.15,2013-03-20 12:52:00,
2013-03-20 07:57:00,17.4,9.3,30.38,North,5,4.0,7.0,70,0.00,,,0.00,Wunderground v.1.15,2013-03-20 12:57:00,
2013-03-20 08:02:00,17.6,8.5,30.38,North,349,5.0,6.0,67,0.00,,,0.00,Wunderground v.1.15,2013-03-20 13:02:00,
2013-03-20 08:08:00,17.7,7.9,30.38,NW,320,6.0,9.0,65,0.00,,,0.00,Wunderground v.1.15,2013-03-20 13:08:00,
2013-03-20 08:14:00,17.8,7.7,30.38,NW,320,6.0,9.0,64,0.00,,,0.00,Wunderground v.1.15,2013-03-20 13:14:00,
2013-03-20 08:20:00,17.9,7.4,30.37,North,356,6.0,6.0,63,0.00,,,0.00,Wunderground v.1.15,2013-03-20 13:20:00,
2013-03-20 08:26:00,18.0,7.0,30.37,NNW,344,4.0,17.0,62,0.00,,,0.00,weatherlink.com 1.10,2013-03-20 13:26:00,
2013-03-20 08:32:00,18.1,7.3,30.37,NNW,333,5.0,7.0,62,0.00,,,0.00,Wunderground v.1.15,2013-03-20 13:32:00,
2013-03-20 08:38:00,18.3,6.7,30.37,North,5,5.0,9.0,60,0.00,,,0.00,Wunderground v.1.15,2013-03-20 13:38:00,
2013-03-20 08:44:00,18.4,6.4,30.37,North,4,6.0,8.0,59,0.00,,,0.00,Wunderground v.1.15,2013-03-20 13:44:00,
2013-03-20 08:49:00,18.7,6.7,30.37,North,355,5.0,8.0,59,0.00,,,0.00,Wunderground v.1.15,2013-03-20 13:49:00,
2013-03-20 08:56:00,18.9,6.5,30.37,North,5,5.0,7.0,58,0.00,,,0.00,Wunderground v.1.15,2013-03-20 13:56:00,
2013-03-20 09:01:00,18.8,6.1,30.37,North,360,6.0,8.0,57,0.00,,,0.00,Wunderground v.1.15,2013-03-20 14:01:00,
2013-03-20 09:06:00,18.9,5.8,30.37,NNE,13,6.0,8.0,56,0.00,,,0.00,Wunderground v.1.15,2013-03-20 14:06:00,
2013-03-20 09:13:00,19.2,5.7,30.37,NNW,345,6.0,6.0,55,0.00,,,0.00,Wunderground v.1.15,2013-03-20 14:13:00,
2013-03-20 09:19:00,19.4,5.4,30.38,WNW,289,6.0,6.0,54,0.00,,,0.00,Wunderground v.1.15,2013-03-20 14:19:00,
2013-03-20 09:24:00,19.5,5.5,30.37,NNW,335,5.0,8.0,54,0.00,,,0.00,Wunderground v.1.15,2013-03-20 14:24:00,
2013-03-20 09:30:00,19.8,5.8,30.37,West,279,6.0,6.0,54,0.00,,,0.00,Wunderground v.1.15,2013-03-20 14:30:00,
2013-03-20 09:36:00,20.1,5.7,30.37,WNW,299,4.0,6.0,53,0.00,,,0.00,Wunderground v.1.15,2013-03-20 14:36:00,
2013-03-20 09:42:00,20.3,6.3,30.37,West,262,4.0,7.0,54,0.00,,,0.00,Wunderground v.1.15,2013-03-20 14:42:00,
2013-03-20 09:49:00,20.3,4.6,30.36,North,9,5.0,9.0,50,0.00,,,0.00,Wunderground v.1.15,2013-03-20 14:49:00,
2013-03-20 09:55:00,20.6,5.3,30.36,North,356,5.0,6.0,51,0.00,,,0.00,Wunderground v.1.15,2013-03-20 14:55:00,
2013-03-20 10:00:00,20.5,5.2,30.36,NNW,329,6.0,6.0,51,0.00,,,0.00,Wunderground v.1.15,2013-03-20 15:00:00,
2013-03-20 10:06:00,21.2,6.3,30.37,NNE,15,5.0,10.0,52,0.00,,,0.00,Wunderground v.1.15,2013-03-20 15:06:00,
2013-03-20 10:12:00,21.1,5.0,30.37,WNW,297,9.0,13.0,50,0.00,,,0.00,weatherlink.com 1.10,2013-03-20 15:12:00,
2013-03-20 10:19:00,21.6,5.4,30.37,NNW,340,4.0,6.0,49,0.00,,,0.00,Wunderground v.1.15,2013-03-20 15:19:00,
2013-03-20 10:24:00,21.6,4.9,30.36,NE,55,5.0,6.0,48,0.00,,,0.00,Wunderground v.1.15,2013-03-20 15:24:00,
2013-03-20 10:30:00,21.5,4.8,30.36,NW,316,7.0,9.0,48,0.00,,,0.00,Wunderground v.1.15,2013-03-20 15:30:00,
2013-03-20 10:35:00,21.7,5.5,30.36,North,8,7.0,11.0,49,0.00,,,0.00,Wunderground v.1.15,2013-03-20 15:35:00,
2013-03-20 10:43:00,22.0,5.0,30.37,WNW,294,5.0,14.0,49,0.00,,,0.00,weatherlink.com 1.10,2013-03-20 15:43:00,
2013-03-20 10:48:00,22.4,6.1,30.37,North,4,3.0,7.0,49,0.00,,,0.00,Wunderground v.1.15,2013-03-20 15:48:00,
2013-03-20 10:53:00,22.6,5.4,30.37,NW,318,3.0,6.0,47,0.00,,,0.00,Wunderground v.1.15,2013-03-20 15:53:00,
2013-03-20 10:58:00,22.6,5.4,30.37,NW,325,4.0,7.0,47,0.00,,,0.00,Wunderground v.1.15,2013-03-20 15:58:00,
2013-03-20 11:07:00,23.4,6.6,30.36,NW,314,4.0,7.0,48,0.00,,,0.00,Wunderground v.1.15,2013-03-20 16:07:00,
2013-03-20 11:13:00,23.5,5.0,30.37,NW,316,7.0,12.0,45,0.00,,,0.00,weatherlink.com 1.10,2013-03-20 16:13:00,
2013-03-20 11:18:00,23.6,5.8,30.37,WNW,297,4.0,7.0,46,0.00,,,0.00,Wunderground v.1.15,2013-03-20 16:18:00,
2013-03-20 11:24:00,23.6,6.3,30.36,West,266,4.0,6.0,47,0.00,,,0.00,Wunderground v.1.15,2013-03-20 16:24:00,
2013-03-20 11:29:00,24.2,6.0,30.36,West,281,0.0,10.0,46,0.00,,,0.00,weatherlink.com 1.10,2013-03-20 16:29:00,
2013-03-20 11:34:00,24.6,6.3,30.36,West,271,4.0,6.0,45,0.00,,,0.00,Wunderground v.1.15,2013-03-20 16:34:00,
2013-03-20 11:41:00,24.9,6.5,30.36,WNW,295,3.0,6.0,45,0.00,,,0.00,Wunderground v.1.15,2013-03-20 16:41:00,
2013-03-20 11:47:00,24.8,5.9,30.36,NW,324,2.0,6.0,44,0.00,,,0.00,Wunderground v.1.15,2013-03-20 16:47:00,
2013-03-20 11:59:00,25.3,6.4,30.36,WNW,297,5.0,11.0,44,0.00,,,0.00,Wunderground v.1.15,2013-03-20 16:59:00,
2013-03-20 12:07:00,25.5,7.1,30.35,West,270,3.0,6.0,45,0.00,,,0.00,Wunderground v.1.15,2013-03-20 17:07:00,
2013-03-20 12:14:00,25.6,5.6,30.35,West,259,4.0,6.0,42,0.00,,,0.00,Wunderground v.1.15,2013-03-20 17:14:00,
2013-03-20 12:20:00,26.2,6.2,30.34,NE,34,5.0,6.0,42,0.00,,,0.00,Wunderground v.1.15,2013-03-20 17:20:00,
2013-03-20 12:27:00,26.9,6.3,30.34,NNE,30,5.0,6.0,41,0.00,,,0.00,Wunderground v.1.15,2013-03-20 17:27:00,
2013-03-20 12:33:00,27.4,6.8,30.34,NNE,33,3.0,6.0,41,0.00,,,0.00,Wunderground v.1.15,2013-03-20 17:33:00,
2013-03-20 12:40:00,27.2,6.0,30.34,WNW,283,3.0,6.0,40,0.00,,,0.00,Wunderground v.1.15,2013-03-20 17:40:00,
2013-03-20 12:50:00,27.8,7.1,30.33,WNW,296,3.0,6.0,41,0.00,,,0.00,Wunderground v.1.15,2013-03-20 17:50:00,
2013-03-20 12:56:00,27.9,6.1,30.33,NW,326,4.0,6.0,39,0.00,,,0.00,Wunderground v.1.15,2013-03-20 17:56:00,
2013-03-20 13:03:00,27.7,5.9,30.32,North,352,4.0,7.0,39,0.00,,,0.00,Wunderground v.1.15,2013-03-20 18:03:00,
2013-03-20 13:09:00,28.4,8.7,30.32,West,260,4.0,10.0,43,0.00,,,0.00,Wunderground v.1.15,2013-03-20 18:09:00,
2013-03-20 13:14:00,28.8,8.0,30.32,NW,324,8.0,13.0,41,0.00,,,0.00,weatherlink.com 1.10,2013-03-20 18:14:00,
2013-03-20 13:19:00,28.7,6.8,30.31,North,7,4.0,9.0,39,0.00,,,0.00,Wunderground v.1.15,2013-03-20 18:19:00,
2013-03-20 13:27:00,28.2,7.5,30.31,NNW,334,4.0,6.0,41,0.00,,,0.00,Wunderground v.1.15,2013-03-20 18:27:00,
2013-03-20 13:38:00,28.7,7.9,30.30,NNW,334,4.0,6.0,41,0.00,,,0.00,Wunderground v.1.15,2013-03-20 18:38:00,
2013-03-20 13:44:00,28.8,8.0,30.29,West,276,4.0,6.0,41,0.00,,,0.00,Wunderground v.1.15,2013-03-20 18:44:00,
2013-03-20 13:49:00,29.2,7.8,30.29,WNW,303,4.0,8.0,40,0.00,,,0.00,Wunderground v.1.15,2013-03-20 18:49:00,
2013-03-20 13:55:00,29.5,8.1,30.29,WSW,254,4.0,7.0,40,0.00,,,0.00,Wunderground v.1.15,2013-03-20 18:55:00,
2013-03-20 14:00:00,29.7,7.0,30.28,North,359,7.0,11.0,39,0.00,,,0.00,weatherlink.com 1.10,2013-03-20 19:00:00,
2013-03-20 14:06:00,30.3,8.8,30.28,North,10,4.0,6.0,40,0.00,,,0.00,Wunderground v.1.15,2013-03-20 19:06:00,
2013-03-20 14:11:00,30.3,7.7,30.28,NNW,346,4.0,6.0,38,0.00,,,0.00,Wunderground v.1.15,2013-03-20 19:11:00,
2013-03-20 14:17:00,30.5,7.9,30.27,WSW,253,4.0,13.0,38,0.00,,,0.00,Wunderground v.1.15,2013-03-20 19:17:00,
2013-03-20 14:22:00,30.6,8.5,30.27,NNW,331,5.0,6.0,39,0.00,,,0.00,Wunderground v.1.15,2013-03-20 19:22:00,
2013-03-20 14:28:00,30.9,7.6,30.26,NNW,336,3.0,8.0,37,0.00,,,0.00,Wunderground v.1.15,2013-03-20 19:28:00,
2013-03-20 14:34:00,31.1,9.0,30.26,NW,326,4.0,6.0,39,0.00,,,0.00,Wunderground v.1.15,2013-03-20 19:34:00,
2013-03-20 14:39:00,31.4,9.3,30.25,NW,322,3.0,6.0,39,0.00,,,0.00,Wunderground v.1.15,2013-03-20 19:39:00,
2013-03-20 14:44:00,31.7,8.4,30.25,West,274,3.0,6.0,37,0.00,,,0.00,Wunderground v.1.15,2013-03-20 19:44:00,
2013-03-20 14:50:00,32.0,8.0,30.24,NNW,329,4.0,4.0,36,0.00,,,0.00,Wunderground v.1.15,2013-03-20 19:50:00,
2013-03-20 14:56:00,32.0,10.4,30.24,NNE,17,4.0,8.0,40,0.00,,,0.00,Wunderground v.1.15,2013-03-20 19:56:00,
2013-03-20 15:02:00,32.5,8.5,30.23,NNW,331,4.0,6.0,36,0.00,,,0.00,Wunderground v.1.15,2013-03-20 20:02:00,
2013-03-20 15:07:00,32.9,9.4,30.23,North,353,3.0,6.0,37,0.00,,,0.00,Wunderground v.1.15,2013-03-20 20:07:00,
2013-03-20 15:13:00,32.7,8.6,30.23,NW,320,3.0,9.0,36,0.00,,,0.00,Wunderground v.1.15,2013-03-20 20:13:00,
2013-03-20 15:19:00,33.0,8.9,30.23,NNW,347,4.0,9.0,36,0.00,,,0.00,Wunderground v.1.15,2013-03-20 20:19:00,
2013-03-20 15:24:00,32.6,8.6,30.22,NNE,20,4.0,6.0,36,0.00,,,0.00,Wunderground v.1.15,2013-03-20 20:24:00,
2013-03-20 15:30:00,32.6,8.6,30.22,WSW,239,4.0,4.0,36,0.00,,,0.00,Wunderground v.1.15,2013-03-20 20:30:00,
2013-03-20 15:36:00,33.0,8.9,30.21,NNW,339,4.0,6.0,36,0.00,,,0.00,Wunderground v.1.15,2013-03-20 20:36:00,
2013-03-20 15:42:00,33.0,8.3,30.21,NW,316,3.0,6.0,35,0.00,,,0.00,Wunderground v.1.15,2013-03-20 20:42:00,
2013-03-20 15:47:00,33.5,10.0,30.21,West,271,3.0,6.0,37,0.00,,,0.00,Wunderground v.1.15,2013-03-20 20:47:00,
2013-03-20 15:53:00,33.8,10.2,30.21,NNE,16,3.0,6.0,37,0.00,,,0.00,Wunderground v.1.15,2013-03-20 20:53:00,
2013-03-20 15:58:00,33.6,8.8,30.21,WSW,252,4.0,10.0,35,0.00,,,0.00,Wunderground v.1.15,2013-03-20 20:58:00,
2013-03-20 16:04:00,33.9,9.7,30.20,North,360,4.0,9.0,36,0.00,,,0.00,Wunderground v.1.15,2013-03-20 21:04:00,
2013-03-20 16:10:00,33.8,10.2,30.20,WNW,299,4.0,4.0,37,0.00,,,0.00,Wunderground v.1.15,2013-03-20 21:10:00,
2013-03-20 16:15:00,33.9,9.7,30.20,NNW,345,4.0,6.0,36,0.00,,,0.00,Wunderground v.1.15,2013-03-20 21:15:00,
2013-03-20 16:21:00,33.9,10.3,30.19,NW,305,3.0,4.0,37,0.00,,,0.00,Wunderground v.1.15,2013-03-20 21:21:00,
2013-03-20 16:27:00,34.3,10.1,30.19,North,8,3.0,6.0,36,0.00,,,0.00,Wunderground v.1.15,2013-03-20 21:27:00,
2013-03-20 16:34:00,34.8,10.5,30.19,NW,324,3.0,6.0,36,0.00,,,0.00,Wunderground v.1.15,2013-03-20 21:34:00,
2013-03-20 16:40:00,35.0,10.7,30.18,WNW,284,3.0,3.0,36,0.00,,,0.00,Wunderground v.1.15,2013-03-20 21:40:00,
2013-03-20 16:46:00,35.4,10.4,30.18,NNW,337,2.0,6.0,35,0.00,,,0.00,Wunderground v.1.15,2013-03-20 21:46:00,
2013-03-20 16:54:00,34.9,10.0,30.18,North,351,4.0,6.0,35,0.00,,,0.00,Wunderground v.1.15,2013-03-20 21:54:00,
2013-03-20 16:59:00,35.2,10.9,30.17,North,2,4.0,8.0,36,0.00,,,0.00,Wunderground v.1.15,2013-03-20 21:59:00,
2013-03-20 17:04:00,35.1,10.2,30.17,North,2,4.0,8.0,35,0.00,,,0.00,Wunderground v.1.15,2013-03-20 22:04:00,
2013-03-20 17:11:00,35.1,10.2,30.17,West,281,3.0,6.0,35,0.00,,,0.00,Wunderground v.1.15,2013-03-20 22:11:00,
2013-03-20 17:17:00,35.1,10.8,30.17,NNW,336,4.0,7.0,36,0.00,,,0.00,Wunderground v.1.15,2013-03-20 22:17:00,
2013-03-20 17:23:00,35.4,11.1,30.17,NW,310,3.0,6.0,36,0.00,,,0.00,Wunderground v.1.15,2013-03-20 22:23:00,
2013-03-20 17:31:00,35.7,11.9,30.16,NW,313,2.0,6.0,37,0.00,,,0.00,Wunderground v.1.15,2013-03-20 22:31:00,
2013-03-20 17:39:00,35.7,10.0,30.16,NW,319,2.0,6.0,34,0.00,,,0.00,Wunderground v.1.15,2013-03-20 22:39:00,
2013-03-20 17:47:00,35.6,10.6,30.16,North,2,3.0,6.0,35,0.00,,,0.00,Wunderground v.1.15,2013-03-20 22:47:00,
2013-03-20 17:52:00,35.6,11.2,30.16,North,349,4.0,6.0,36,0.00,,,0.00,Wunderground v.1.15,2013-03-20 22:52:00,
2013-03-20 17:59:00,35.6,10.6,30.15,NNE,15,3.0,6.0,35,0.00,,,0.00,Wunderground v.1.15,2013-03-20 22:59:00,
2013-03-20 18:05:00,35.5,11.0,30.14,North,8,7.0,11.0,36,0.00,,,0.00,weatherlink.com 1.10,2013-03-20 23:05:00,
2013-03-20 18:10:00,35.5,11.1,30.14,North,351,4.0,4.0,36,0.00,,,0.00,Wunderground v.1.15,2013-03-20 23:10:00,
2013-03-20 18:16:00,35.6,11.2,30.14,NNE,26,2.0,6.0,36,0.00,,,0.00,Wunderground v.1.15,2013-03-20 23:16:00,
2013-03-20 18:21:00,35.4,11.1,30.14,NE,53,3.0,7.0,36,0.00,,,0.00,Wunderground v.1.15,2013-03-20 23:21:00,
2013-03-20 18:27:00,35.0,10.7,30.13,NNE,23,5.0,7.0,36,0.00,,,0.00,Wunderground v.1.15,2013-03-20 23:27:00,
2013-03-20 18:34:00,34.8,10.0,30.13,NNE,22,4.0,10.0,36,0.00,,,0.00,weatherlink.com 1.10,2013-03-20 23:34:00,
2013-03-20 18:39:00,34.8,11.1,30.13,NNW,345,4.0,6.0,37,0.00,,,0.00,Wunderground v.1.15,2013-03-20 23:39:00,
2013-03-20 18:45:00,34.8,11.1,30.13,NNE,16,3.0,6.0,37,0.00,,,0.00,Wunderground v.1.15,2013-03-20 23:45:00,
2013-03-20 18:51:00,34.6,11.0,30.13,NE,36,2.0,6.0,37,0.00,,,0.00,Wunderground v.1.15,2013-03-20 23:51:00,
2013-03-20 18:57:00,34.4,10.8,30.13,NNE,32,2.0,6.0,37,0.00,,,0.00,Wunderground v.1.15,2013-03-20 23:57:00,
2013-03-20 19:02:00,34.2,11.8,30.13,NE,50,2.0,6.0,39,0.00,,,0.00,Wunderground v.1.15,2013-03-21 00:02:00,
2013-03-20 19:08:00,33.9,10.9,30.13,NNE,25,3.0,7.0,38,0.00,,,0.00,Wunderground v.1.15,2013-03-21 00:08:00,
2013-03-20 19:16:00,33.6,11.2,30.13,NNE,14,2.0,6.0,39,0.00,,,0.00,Wunderground v.1.15,2013-03-21 00:16:00,
2013-03-20 19:25:00,33.2,10.9,30.13,North,8,1.0,6.0,39,0.00,,,0.00,Wunderground v.1.15,2013-03-21 00:25:00,
2013-03-20 19:32:00,32.9,11.2,30.13,North,8,0.0,6.0,40,0.00,,,0.00,Wunderground v.1.15,2013-03-21 00:32:00,
2013-03-20 19:37:00,32.7,10.4,30.13,North,8,0.0,6.0,39,0.00,,,0.00,Wunderground v.1.15,2013-03-21 00:37:00,
2013-03-20 19:43:00,32.3,12.3,30.13,North,8,0.0,6.0,43,0.00,,,0.00,Wunderground v.1.15,2013-03-21 00:43:00,
2013-03-20 19:48:00,31.7,11.2,30.13,North,8,0.0,6.0,42,0.00,,,0.00,Wunderground v.1.15,2013-03-21 00:48:00,
2013-03-20 19:54:00,31.2,11.8,30.13,North,8,0.0,6.0,44,0.00,,,0.00,Wunderground v.1.15,2013-03-21 00:54:00,
2013-03-20 19:59:00,30.5,11.7,30.13,North,8,0.0,6.0,45,0.00,,,0.00,Wunderground v.1.15,2013-03-21 00:59:00,
2013-03-20 20:05:00,30.1,11.0,30.13,North,8,0.0,0.0,45,0.00,,,0.00,weatherlink.com 1.10,2013-03-21 01:05:00,
2013-03-20 20:11:00,29.7,11.9,30.13,North,8,0.0,6.0,47,0.00,,,0.00,Wunderground v.1.15,2013-03-21 01:11:00,
2013-03-20 20:17:00,28.9,13.0,30.13,North,8,0.0,6.0,51,0.00,,,0.00,Wunderground v.1.15,2013-03-21 01:17:00,
2013-03-20 20:22:00,28.3,12.9,30.13,North,8,0.0,6.0,52,0.00,,,0.00,Wunderground v.1.15,2013-03-21 01:22:00,
2013-03-20 20:29:00,27.7,12.8,30.13,North,8,0.0,6.0,53,0.00,,,0.00,Wunderground v.1.15,2013-03-21 01:29:00,
2013-03-20 20:36:00,26.3,13.0,30.13,North,8,0.0,0.0,57,0.00,,,0.00,weatherlink.com 1.10,2013-03-21 01:36:00,
2013-03-20 20:42:00,26.0,13.2,30.13,SSW,209,0.0,6.0,58,0.00,,,0.00,Wunderground v.1.15,2013-03-21 01:42:00,
2013-03-20 20:51:00,25.8,14.2,30.13,SSW,200,0.0,6.0,61,0.00,,,0.00,Wunderground v.1.15,2013-03-21 01:51:00,
2013-03-20 20:59:00,25.4,13.1,30.13,SSW,200,0.0,6.0,59,0.00,,,0.00,Wunderground v.1.15,2013-03-21 01:59:00,
2013-03-20 21:06:00,25.1,12.0,30.12,SSW,200,0.0,0.0,59,0.00,,,0.00,weatherlink.com 1.10,2013-03-21 02:06:00,
2013-03-20 21:13:00,24.7,14.2,30.12,SSW,200,0.0,6.0,64,0.00,,,0.00,Wunderground v.1.15,2013-03-21 02:13:00,
2013-03-20 21:19:00,24.2,14.1,30.12,SSW,200,0.0,6.0,65,0.00,,,0.00,Wunderground v.1.15,2013-03-21 02:19:00,
2013-03-20 21:25:00,23.8,14.1,30.12,SSW,200,0.0,6.0,66,0.00,,,0.00,Wunderground v.1.15,2013-03-21 02:25:00,
2013-03-20 21:33:00,23.3,14.6,30.11,SSW,200,0.0,6.0,69,0.00,,,0.00,Wunderground v.1.15,2013-03-21 02:33:00,
2013-03-20 21:38:00,23.3,14.6,30.11,SSW,200,0.0,6.0,69,0.00,,,0.00,Wunderground v.1.15,2013-03-21 02:38:00,
2013-03-20 21:44:00,23.1,14.4,30.11,SSW,200,0.0,6.0,69,0.00,,,0.00,Wunderground v.1.15,2013-03-21 02:44:00,
2013-03-20 21:49:00,22.9,14.2,30.11,SSW,200,0.0,6.0,69,0.00,,,0.00,Wunderground v.1.15,2013-03-21 02:49:00,
2013-03-20 21:54:00,22.8,14.8,30.11,SSW,200,0.0,6.0,71,0.00,,,0.00,Wunderground v.1.15,2013-03-21 02:54:00,
2013-03-20 22:00:00,22.7,14.4,30.10,SSW,200,0.0,6.0,70,0.00,,,0.00,Wunderground v.1.15,2013-03-21 03:00:00,
2013-03-20 22:05:00,22.6,14.3,30.10,SSW,200,0.0,6.0,70,0.00,,,0.00,Wunderground v.1.15,2013-03-21 03:05:00,
2013-03-20 22:10:00,22.6,14.6,30.10,SSW,200,0.0,6.0,71,0.00,,,0.00,Wunderground v.1.15,2013-03-21 03:10:00,
2013-03-20 22:17:00,22.6,14.6,30.10,SSW,200,0.0,6.0,71,0.00,,,0.00,Wunderground v.1.15,2013-03-21 03:17:00,
2013-03-20 22:23:00,22.3,14.0,30.09,SSW,200,0.0,0.0,71,0.00,,,0.00,weatherlink.com 1.10,2013-03-21 03:23:00,
2013-03-20 22:28:00,22.2,14.2,30.10,SSW,200,0.0,6.0,71,0.00,,,0.00,Wunderground v.1.15,2013-03-21 03:28:00,
2013-03-20 22:35:00,21.7,14.1,30.10,SSW,200,0.0,6.0,72,0.00,,,0.00,Wunderground v.1.15,2013-03-21 03:35:00,
2013-03-20 22:40:00,21.5,13.9,30.09,SSW,200,0.0,6.0,72,0.00,,,0.00,Wunderground v.1.15,2013-03-21 03:40:00,
2013-03-20 22:45:00,21.5,14.5,30.09,SSW,200,0.0,6.0,74,0.00,,,0.00,Wunderground v.1.15,2013-03-21 03:45:00,
2013-03-20 22:51:00,21.4,14.0,30.09,SSW,200,0.0,1.0,74,0.00,,,0.00,weatherlink.com 1.10,2013-03-21 03:51:00,
2013-03-20 22:57:00,21.6,14.3,30.09,SSW,200,0.0,6.0,73,0.00,,,0.00,Wunderground v.1.15,2013-03-21 03:57:00,
2013-03-20 23:00:00,21.8,14.2,30.09,SSW,200,0.0,6.0,72,0.00,,,0.00,Wunderground v.1.15,2013-03-21 04:00:00,
2013-03-20 23:02:00,21.9,14.3,30.09,SSW,200,0.0,6.0,72,0.00,,,0.00,Wunderground v.1.15,2013-03-21 04:02:00,
2013-03-20 23:06:00,21.9,14.3,30.10,SSW,200,0.0,6.0,72,0.00,,,0.00,Wunderground v.1.15,2013-03-21 04:06:00,
2013-03-20 23:07:00,21.8,14.0,30.09,SSW,200,0.0,1.0,72,0.00,,,0.00,weatherlink.com 1.10,2013-03-21 04:07:00,
2013-03-20 23:13:00,21.7,14.4,30.09,SSW,200,0.0,6.0,73,0.00,,,0.00,Wunderground v.1.15,2013-03-21 04:13:00,
2013-03-20 23:18:00,21.5,14.5,30.09,SSW,200,0.0,6.0,74,0.00,,,0.00,Wunderground v.1.15,2013-03-21 04:18:00,
2013-03-20 23:23:00,21.7,15.3,30.09,SSW,200,0.0,6.0,76,0.00,,,0.00,Wunderground v.1.15,2013-03-21 04:23:00,
2013-03-20 23:28:00,21.7,14.4,30.09,ENE,70,1.0,6.0,73,0.00,,,0.00,Wunderground v.1.15,2013-03-21 04:28:00,
2013-03-20 23:34:00,22.5,14.5,30.08,ENE,70,1.0,6.0,71,0.00,,,0.00,Wunderground v.1.15,2013-03-21 04:34:00,
2013-03-20 23:39:00,22.5,14.8,30.08,ENE,70,0.0,6.0,72,0.00,,,0.00,Wunderground v.1.15,2013-03-21 04:39:00,
2013-03-20 23:45:00,22.6,14.0,30.08,ENE,72,1.0,6.0,69,0.00,,,0.00,Wunderground v.1.15,2013-03-21 04:45:00,
2013-03-20 23:51:00,22.9,13.9,30.08,East,98,2.0,6.0,68,0.00,,,0.00,Wunderground v.1.15,2013-03-21 04:51:00,
2013-03-20 23:56:00,23.3,14.3,30.08,East,92,2.0,6.0,68,0.00,,,0.00,Wunderground v.1.15,2013-03-21 04:56:00,